, AK

(GMT )
Tin City

Weather History for PATC - February, 2014

Change the Weather History Date:

Tuesday, February 11, 2014

  Actual Average Record
Temperature  
Mean Temperature 1 °F -  
Max Temperature 9 °F 7 °F 35 °F (2000)
Min Temperature -7 °F -2 °F -29 °F (2009)
Degree Days  
Heating Degree Days 64    
Moisture  
Dew Point -6 °F    
Average Humidity 86    
Maximum Humidity 92    
Minimum Humidity 82    
Precipitation  
Precipitation 0.00 in - - ()
Sea Level Pressure  
Sea Level Pressure 30.37 in    
Wind  
Wind Speed 23 mph (NNW)    
Max Wind Speed 25 mph    
Max Gust Speed 34 mph    
Visibility 2 miles    
Events Fog , Snow    
Averages and records for this station are not official NWS values.
T = Trace of Precipitation, MM = Missing Value Source: NWS Daily Summary

Daily Weather History Graph

Daily Weather History Graph

Search for Another Location

Airport or City:

Trip Planner

Search our weather history database for the weather conditions in past years. The results will help you decide how hot, cold, wet, or windy it might be!

Date:

Astronomy

Feb. 11, 2014 Rise Set
Actual Time 10:27 AM AKST 6:25 PM AKST
Civil Twilight 9:31 AM AKST 7:21 PM AKST
Nautical Twilight 8:31 AM AKST 8:21 PM AKST
Astronomical Twilight 7:33 AM AKST 9:19 PM AKST
Moon 3:22 PM AKST (2/11) 8:51 AM AKST (2/11)
Length of Visible Light 9h 49m
Length of Day
7h 57m
Waxing Gibbous, 91% of the Moon is Illuminated
Feb 11
Waxing Gibbous
Feb 14
Full
Feb 22
Last Quarter
Feb 28
New
Mar 8
First Quarter

Hourly Weather History & Observations

Time (AKST) Temp. Windchill Dew Point Humidity Pressure Visibility Wind Dir Wind Speed Gust Speed Precip Events Conditions
12:39 AM 8.6 °F - 6.8 °F 92% 30.44 in 1.0 mi North - - N/A Snow Snow
12:55 AM 9.3 °F - 7.2 °F 91% 30.43 in 0.2 mi North - - 0.00 in Snow Snow
1:55 AM 6.4 °F - 3.6 °F 88% 30.43 in 0.2 mi North - - 0.00 in Snow Heavy Snow
2:19 AM 3.2 °F - 1.4 °F 92% 30.43 in 0.2 mi North - - N/A Snow Light Snow
2:55 AM 2.3 °F - -0.6 °F 88% 30.43 in 0.5 mi North - - 0.00 in Snow Light Snow
2:59 AM 1.4 °F - -0.4 °F 92% 30.43 in 0.2 mi North - - N/A Snow Light Snow
3:55 AM 0.3 °F - -2.2 °F 89% 30.43 in 0.2 mi North - - 0.00 in Snow Light Snow
4:55 AM -0.8 °F - -3.6 °F 88% 30.42 in 0.5 mi North - - 0.00 in Snow Light Snow
4:59 AM -0.4 °F - -4.0 °F 85% 30.42 in 0.2 mi North - - N/A Snow Light Snow
5:19 AM -0.4 °F - -4.0 °F 85% 30.43 in 0.2 mi North - - N/A Snow Light Snow
5:39 AM -0.4 °F - -4.0 °F 85% 30.43 in 0.5 mi North - - N/A Fog , Snow Light Snow
5:55 AM -1.1 °F - -3.8 °F 88% 30.46 in 0.8 mi North - - 0.00 in Snow Light Snow
6:19 AM -0.4 °F - -4.0 °F 85% 30.46 in 1.0 mi North - - N/A Snow Light Snow
6:55 AM -2.4 °F - -5.6 °F 86% 30.45 in 1.0 mi North - - 0.00 in Snow Light Snow
7:05 AM -2.2 °F -25.2 °F -5.8 °F 85% 30.45 in 1.2 mi NNW 20.7 mph 29.9 mph N/A Snow Light Snow
7:25 AM -4.0 °F -28.1 °F -5.8 °F 92% 30.45 in 2.0 mi NNW 21.9 mph 32.2 mph N/A   Mostly Cloudy
7:45 AM -4.0 °F - -5.8 °F 92% 30.44 in - North - - N/A   Mostly Cloudy
7:55 AM -4.0 °F -29.1 °F -7.6 °F 85% 30.44 in 3.0 mi NNW 24.2 mph 29.9 mph N/A   Mostly Cloudy
8:15 AM -4.0 °F -29.6 °F -7.6 °F 85% 30.43 in 1.2 mi NNW 25.3 mph 32.2 mph N/A   Mostly Cloudy
8:35 AM -4.0 °F -29.1 °F -7.6 °F 85% 30.43 in 1.0 mi NW 24.2 mph 32.2 mph N/A   Overcast
8:55 AM -4.0 °F -29.6 °F -7.6 °F 85% 30.43 in 1.0 mi NW 25.3 mph 32.2 mph N/A   Mostly Cloudy
9:20 AM -4.0 °F -29.1 °F -7.6 °F 85% 30.44 in 0.8 mi NW 24.2 mph 34.5 mph N/A Snow Light Snow Showers
9:53 AM -4.0 °F - -7.6 °F 85% 30.43 in 1.0 mi North - - N/A   Mostly Cloudy
10:07 AM -4.0 °F - -7.6 °F 85% 30.43 in 1.2 mi North - - N/A   Overcast
10:52 AM -5.8 °F - -7.6 °F 92% 30.43 in 4.0 mi North - - N/A   Scattered Clouds
11:17 AM -4.0 °F - -7.6 °F 85% 30.42 in 6.0 mi North - - N/A   Mostly Cloudy
11:55 AM -4.7 °F - -7.6 °F 87% 30.42 in 5.0 mi North - - N/A   Overcast
12:55 PM -4.5 °F - -7.2 °F 88% 30.38 in 10.0 mi North - - N/A   Mostly Cloudy
1:22 PM -4.0 °F - -7.6 °F 85% 30.39 in 10.0 mi North - - N/A   Scattered Clouds
1:55 PM -4.4 °F - -7.2 °F 87% 30.40 in 10.0 mi North - - N/A   Partly Cloudy
2:55 PM -4.0 °F - -7.2 °F 86% 30.40 in 10.0 mi North - - N/A   Overcast
3:55 PM -3.1 °F - -7.2 °F 82% 30.37 in 10.0 mi North - - N/A   Overcast
4:55 PM -2.0 °F - -6.3 °F 82% 30.35 in 10.0 mi North - - N/A   Overcast
5:55 PM -1.8 °F - -6.2 °F 82% 30.32 in 10.0 mi North - - 0.00 in Snow Light Snow
6:07 PM -2.2 °F - -5.8 °F 85% 30.32 in 0.8 mi North - - N/A Snow Light Snow
6:52 PM -2.2 °F - -4.0 °F 92% 30.31 in 2.0 mi North - - N/A Snow Light Snow
7:17 PM -2.2 °F - -4.0 °F 92% 30.31 in 1.5 mi North - - N/A Snow Light Snow
7:42 PM -2.2 °F - -5.8 °F 85% 30.30 in 0.8 mi North - - N/A Snow Light Snow
7:55 PM -2.4 °F - -5.6 °F 86% 30.29 in 0.5 mi North - - 0.00 in Snow Light Snow
8:07 PM -2.2 °F - -5.8 °F 85% 30.27 in 0.8 mi North - - N/A Snow Light Snow
8:32 PM -4.0 °F - -7.6 °F 85% 30.27 in 1.2 mi North - - N/A Snow Light Snow
8:55 PM -4.0 °F - -8.1 °F 82% 30.26 in 1.8 mi North - - N/A   Partly Cloudy
9:17 PM -4.0 °F - -7.6 °F 85% 30.26 in 1.5 mi North - - N/A Snow Light Snow Showers
9:42 PM -4.0 °F - -7.6 °F 85% 30.26 in 1.0 mi North - - N/A Snow Light Snow Showers
9:55 PM -5.1 °F - -8.7 °F 84% 30.26 in 1.0 mi North - - 0.00 in Snow Light Snow Showers
10:07 PM -5.8 °F - -9.4 °F 84% 30.26 in 1.2 mi North - - N/A Snow Light Snow Showers
10:32 PM -5.8 °F - -9.4 °F 84% 30.27 in 1.5 mi North - - N/A Snow Light Snow Showers
10:55 PM -5.8 °F - -9.4 °F 84% 30.26 in 1.0 mi North - - 0.00 in Snow Light Snow
11:17 PM -5.8 °F - -9.4 °F 84% 30.25 in 1.0 mi North - - N/A Snow Light Snow
11:42 PM -7.6 °F - -11.2 °F 84% 30.24 in 1.2 mi North - - N/A Snow Light Snow Showers
11:55 PM -7.1 °F - -11.2 °F 82% 30.23 in 2.5 mi North - - N/A   Mostly Cloudy